Weather History for Tallahassee, FL

Change the Weather History Date:

Sunday, February 3, 2013

  Actual Average Record
Temperature  
Mean Temperature 52 °F 53 °F  
Max Temperature 68 °F 65 °F 83 °F (1989)
Min Temperature 36 °F 40 °F 15 °F (1917)
Degree Days  
Heating Degree Days 13    
Month to date heating degree days 49  
Since 1 July heating degree days 767  
Cooling Degree Days 0    
Month to date cooling degree days 0  
Year to date cooling degree days 34  
Growing Degree Days 2 (Base 50)    
Moisture  
Dew Point 32 °F    
Average Humidity 55    
Maximum Humidity 93    
Minimum Humidity 17    
Precipitation  
Precipitation T in 0.15 in 2.04 in (1982)
Month to date precipitation T 0.47  
Year to date precipitation 0.85 4.81  
Sea Level Pressure  
Sea Level Pressure 30.16 in    
Wind  
Wind Speed 4 mph (NW)    
Max Wind Speed 16 mph    
Max Gust Speed 22 mph    
Visibility 10 miles    
Events      
T = Trace of Precipitation, MM = Missing Value Source: NWS Daily Summary

Daily Weather History Graph

Daily Weather History Graph

Search for Another Location

Airport:

Trip Planner

Search our weather history database for the weather conditions in past years. The results will help you decide how hot, cold, wet, or windy it might be!

Date:

Astronomy

Feb. 03, 2013 Rise Set
Actual Time 7:26 AM EST 6:16 PM EST
Civil Twilight 7:01 AM EST 6:41 PM EST
Nautical Twilight 6:33 AM EST 7:09 PM EST
Astronomical Twilight 6:04 AM EST 7:38 PM EST
Moon 12:52 AM EST (2/3) 11:55 AM EST (2/3)
Length of Visible Light 11h 39m
Length of Day
10h 49m
Waning Gibbous, 49% of the Moon is Illuminated
Feb 3
Waning Gibbous
Feb 10
New
Feb 17
First Quarter
Feb 25
Full
Mar 4
Last Quarter

Hourly Weather History & Observations

Time (EST) Temp. Windchill Dew Point Humidity Pressure Visibility Wind Dir Wind Speed Gust Speed Precip Events Conditions
12:53 AM 37.9 °F - 32.0 °F 79% 30.19 in 10.0 mi Calm Calm - N/A   Clear
1:53 AM 37.0 °F - 30.9 °F 79% 30.17 in 10.0 mi Calm Calm - N/A   Clear
2:53 AM 37.0 °F - 32.0 °F 82% 30.17 in 10.0 mi Calm Calm - N/A   Mostly Cloudy
3:53 AM 39.0 °F - 33.1 °F 79% 30.17 in 10.0 mi Calm Calm - N/A   Overcast
4:53 AM 46.9 °F - 43.0 °F 86% 30.17 in 10.0 mi Calm Calm - 0.00 in   Overcast
5:53 AM 45.0 °F 42.6 °F 42.1 °F 90% 30.18 in 10.0 mi WNW 4.6 mph - N/A   Scattered Clouds
6:53 AM 48.0 °F - 44.1 °F 86% 30.19 in 10.0 mi North 4.6 mph - N/A   Partly Cloudy
7:53 AM 46.9 °F - 44.1 °F 90% 30.20 in 10.0 mi North 5.8 mph - N/A   Clear
8:53 AM 50.0 °F - 42.1 °F 74% 30.23 in 10.0 mi North 5.8 mph - N/A   Clear
9:53 AM 54.0 °F - 36.0 °F 51% 30.24 in 10.0 mi NNW 6.9 mph - N/A   Clear
10:53 AM 57.9 °F - 30.9 °F 36% 30.23 in 10.0 mi Calm Calm - N/A   Clear
11:53 AM 62.1 °F - 26.1 °F 25% 30.20 in 10.0 mi North 11.5 mph - N/A   Clear
12:53 PM 64.0 °F - 26.1 °F 24% 30.17 in 10.0 mi NNW 11.5 mph - N/A   Clear
1:53 PM 66.0 °F - 25.0 °F 21% 30.12 in 10.0 mi NW 8.1 mph 17.3 mph N/A   Clear
2:53 PM 66.9 °F - 23.0 °F 19% 30.10 in 10.0 mi WNW 9.2 mph 17.3 mph N/A   Clear
3:53 PM 68.0 °F - 21.0 °F 17% 30.10 in 10.0 mi WNW 13.8 mph - N/A   Clear
4:53 PM 66.9 °F - 23.0 °F 19% 30.09 in 10.0 mi West 10.4 mph - N/A   Clear
5:53 PM 64.0 °F - 24.1 °F 22% 30.09 in 10.0 mi West 6.9 mph - N/A   Clear
6:53 PM 54.0 °F - 27.0 °F 35% 30.10 in 10.0 mi West 3.5 mph - N/A   Clear
7:53 PM 46.9 °F - 28.9 °F 50% 30.11 in 10.0 mi Calm Calm - N/A   Clear
8:53 PM 43.0 °F - 30.0 °F 60% 30.13 in 10.0 mi Calm Calm - N/A   Clear
9:53 PM 43.0 °F - 30.0 °F 60% 30.13 in 10.0 mi Calm Calm - N/A   Clear
10:53 PM 42.1 °F - 30.0 °F 62% 30.14 in 10.0 mi Calm Calm - N/A   Clear
11:53 PM 39.0 °F - 30.9 °F 73% 30.13 in 10.0 mi Calm Calm - N/A   Clear